Time,TemperatureF,DewpointF,PressureIn,WindDirection,WindDirectionDegrees,WindSpeedMPH,WindSpeedGustMPH,Humidity,HourlyPrecipIn,Conditions,Clouds,dailyrainin,SoftwareType,DateUTC
2013-03-09 00:00:00,35.4,20.0,30.19,South,180,0.0,0.0,53,0.00,CLR,,0.00,WeatherDisplay:10.37,2013-03-09 05:00:00,
2013-03-09 00:01:00,35.4,19.5,30.19,South,180,0.0,0.0,52,0.00,CLR,,0.00,WeatherDisplay:10.37,2013-03-09 05:01:00,
2013-03-09 00:06:00,35.4,19.5,30.19,South,180,0.0,0.0,52,0.00,CLR,,0.00,WeatherDisplay:10.37,2013-03-09 05:06:00,
2013-03-09 00:11:00,35.4,19.5,30.20,South,180,0.0,0.0,52,0.00,CLR,,0.00,WeatherDisplay:10.37,2013-03-09 05:11:00,
2013-03-09 00:16:00,35.2,19.8,30.20,South,180,0.0,0.0,53,0.00,CLR,,0.00,WeatherDisplay:10.37,2013-03-09 05:16:00,
2013-03-09 00:21:00,35.4,19.5,30.20,South,180,0.0,0.0,52,0.00,CLR,,0.00,WeatherDisplay:10.37,2013-03-09 05:21:00,
2013-03-09 00:26:00,35.1,19.2,30.20,South,180,0.0,0.0,52,0.00,CLR,,0.00,WeatherDisplay:10.37,2013-03-09 05:26:00,
2013-03-09 00:31:00,34.9,19.0,30.21,South,180,0.0,0.0,52,0.00,CLR,,0.00,WeatherDisplay:10.37,2013-03-09 05:31:00,
2013-03-09 00:36:00,34.5,19.1,30.21,South,180,0.0,0.0,53,0.00,CLR,,0.00,WeatherDisplay:10.37,2013-03-09 05:36:00,
2013-03-09 00:41:00,34.5,19.1,30.21,South,180,0.0,0.0,53,0.00,CLR,,0.00,WeatherDisplay:10.37,2013-03-09 05:41:00,
2013-03-09 00:46:00,34.3,19.0,30.21,South,180,0.0,0.0,53,0.00,CLR,,0.00,WeatherDisplay:10.37,2013-03-09 05:46:00,
2013-03-09 00:51:00,34.5,18.7,30.21,South,180,0.0,0.0,52,0.00,CLR,,0.00,WeatherDisplay:10.37,2013-03-09 05:51:00,
2013-03-09 00:56:00,34.5,18.7,30.21,South,180,0.0,0.0,52,0.00,CLR,,0.00,WeatherDisplay:10.37,2013-03-09 05:56:00,
2013-03-09 01:01:00,34.3,18.5,30.21,South,180,0.0,0.0,52,0.00,CLR,,0.00,WeatherDisplay:10.37,2013-03-09 06:01:00,
2013-03-09 01:06:00,34.3,18.5,30.21,South,180,0.0,0.0,52,0.00,CLR,,0.00,WeatherDisplay:10.37,2013-03-09 06:06:00,
2013-03-09 01:11:00,34.0,18.6,30.21,South,180,0.0,0.0,53,0.00,CLR,,0.00,WeatherDisplay:10.37,2013-03-09 06:11:00,
2013-03-09 01:16:00,34.2,18.3,30.21,South,180,0.0,0.0,52,0.00,CLR,,0.00,WeatherDisplay:10.37,2013-03-09 06:16:00,
2013-03-09 01:21:00,33.6,18.3,30.21,South,180,0.0,0.0,53,0.00,CLR,,0.00,WeatherDisplay:10.37,2013-03-09 06:21:00,
2013-03-09 01:26:00,33.6,18.7,30.21,South,180,0.0,0.0,54,0.00,CLR,,0.00,WeatherDisplay:10.37,2013-03-09 06:26:00,
2013-03-09 01:31:00,33.6,18.7,30.21,South,180,0.0,0.0,54,0.00,CLR,,0.00,WeatherDisplay:10.37,2013-03-09 06:31:00,
2013-03-09 01:36:00,33.3,18.8,30.21,South,180,0.0,0.0,55,0.00,CLR,,0.00,WeatherDisplay:10.37,2013-03-09 06:36:00,
2013-03-09 01:41:00,33.4,19.0,30.21,South,180,0.0,0.0,55,0.00,CLR,,0.00,WeatherDisplay:10.37,2013-03-09 06:41:00,
2013-03-09 01:46:00,33.4,19.0,30.21,South,180,0.0,0.0,55,0.00,CLR,,0.00,WeatherDisplay:10.37,2013-03-09 06:46:00,
2013-03-09 01:51:00,33.4,18.6,30.20,South,180,0.0,0.0,54,0.00,CLR,,0.00,WeatherDisplay:10.37,2013-03-09 06:51:00,
2013-03-09 01:56:00,33.4,18.6,30.20,South,180,0.0,0.0,54,0.00,CLR,,0.00,WeatherDisplay:10.37,2013-03-09 06:56:00,
2013-03-09 02:01:00,33.4,18.6,30.20,South,180,0.0,0.0,54,0.00,CLR,,0.00,WeatherDisplay:10.37,2013-03-09 07:01:00,
2013-03-09 02:06:00,33.8,18.0,30.20,South,180,0.0,0.0,52,0.00,CLR,,0.00,WeatherDisplay:10.37,2013-03-09 07:06:00,
2013-03-09 02:11:00,33.6,18.3,30.21,South,180,0.0,0.0,53,0.00,CLR,,0.00,WeatherDisplay:10.37,2013-03-09 07:11:00,
2013-03-09 02:16:00,33.6,18.3,30.21,South,180,0.0,0.0,53,0.00,CLR,,0.00,WeatherDisplay:10.37,2013-03-09 07:16:00,
2013-03-09 02:21:00,33.4,18.1,30.21,South,180,0.0,0.0,53,0.00,CLR,,0.00,WeatherDisplay:10.37,2013-03-09 07:21:00,
2013-03-09 02:26:00,33.4,18.1,30.21,South,180,0.0,0.0,53,0.00,CLR,,0.00,WeatherDisplay:10.37,2013-03-09 07:26:00,
2013-03-09 02:31:00,33.3,18.0,30.21,South,180,0.0,0.0,53,0.00,CLR,,0.00,WeatherDisplay:10.37,2013-03-09 07:31:00,
2013-03-09 02:36:00,32.7,17.9,30.21,South,180,0.0,0.0,54,0.00,CLR,,0.00,WeatherDisplay:10.37,2013-03-09 07:36:00,
2013-03-09 02:41:00,32.9,18.1,30.21,South,180,0.0,0.0,54,0.00,CLR,,0.00,WeatherDisplay:10.37,2013-03-09 07:41:00,
2013-03-09 02:46:00,32.7,18.3,30.21,South,180,0.0,0.0,55,0.00,CLR,,0.00,WeatherDisplay:10.37,2013-03-09 07:46:00,
2013-03-09 02:51:00,32.7,18.3,30.20,South,180,0.0,0.0,55,0.00,CLR,,0.00,WeatherDisplay:10.37,2013-03-09 07:51:00,
2013-03-09 02:56:00,32.7,18.3,30.20,South,180,0.0,0.0,55,0.00,CLR,,0.00,WeatherDisplay:10.37,2013-03-09 07:56:00,
2013-03-09 03:01:00,33.1,18.2,30.20,South,180,0.0,0.0,54,0.00,CLR,,0.00,WeatherDisplay:10.37,2013-03-09 08:01:00,
2013-03-09 03:06:00,33.1,18.2,30.20,South,180,0.0,0.0,54,0.00,CLR,,0.00,WeatherDisplay:10.37,2013-03-09 08:06:00,
2013-03-09 03:11:00,33.1,18.2,30.21,South,180,0.0,0.0,54,0.00,CLR,,0.00,WeatherDisplay:10.37,2013-03-09 08:11:00,
2013-03-09 03:16:00,33.1,17.3,30.21,South,180,0.0,0.0,52,0.00,CLR,,0.00,WeatherDisplay:10.37,2013-03-09 08:16:00,
2013-03-09 03:21:00,32.5,17.7,30.21,South,180,0.0,0.0,54,0.00,CLR,,0.00,WeatherDisplay:10.37,2013-03-09 08:21:00,
2013-03-09 03:26:00,32.7,17.5,30.21,South,180,0.0,0.0,53,0.00,CLR,,0.00,WeatherDisplay:10.37,2013-03-09 08:26:00,
2013-03-09 03:31:00,33.1,17.8,30.20,South,180,0.0,0.0,53,0.00,CLR,,0.00,WeatherDisplay:10.37,2013-03-09 08:31:00,
2013-03-09 03:36:00,33.1,17.8,30.20,South,180,0.0,0.0,53,0.00,CLR,,0.00,WeatherDisplay:10.37,2013-03-09 08:36:00,
2013-03-09 03:41:00,32.7,17.5,30.20,South,180,0.0,0.0,53,0.00,CLR,,0.00,WeatherDisplay:10.37,2013-03-09 08:41:00,
2013-03-09 03:46:00,32.9,17.2,30.20,South,180,0.0,0.0,52,0.00,CLR,,0.00,WeatherDisplay:10.37,2013-03-09 08:46:00,
2013-03-09 03:51:00,32.7,17.5,30.21,South,180,0.0,0.0,53,0.00,CLR,,0.00,WeatherDisplay:10.37,2013-03-09 08:51:00,
2013-03-09 03:56:00,32.7,17.5,30.21,South,180,0.0,0.0,53,0.00,CLR,,0.00,WeatherDisplay:10.37,2013-03-09 08:56:00,
2013-03-09 04:01:00,32.7,17.5,30.21,South,180,0.0,0.0,53,0.00,CLR,,0.00,WeatherDisplay:10.37,2013-03-09 09:01:00,
2013-03-09 04:06:00,32.4,17.6,30.21,South,180,0.0,0.0,54,0.00,CLR,,0.00,WeatherDisplay:10.37,2013-03-09 09:06:00,
2013-03-09 04:11:00,32.2,17.8,30.21,South,180,0.0,0.0,55,0.00,CLR,,0.00,WeatherDisplay:10.37,2013-03-09 09:11:00,
2013-03-09 04:16:00,32.4,17.6,30.21,South,180,0.0,0.0,54,0.00,CLR,,0.00,WeatherDisplay:10.37,2013-03-09 09:16:00,
2013-03-09 04:21:00,32.2,17.8,30.21,South,180,0.0,0.0,55,0.00,CLR,,0.00,WeatherDisplay:10.37,2013-03-09 09:21:00,
2013-03-09 04:26:00,32.2,17.8,30.21,South,180,0.0,0.0,55,0.00,CLR,,0.00,WeatherDisplay:10.37,2013-03-09 09:26:00,
2013-03-09 04:31:00,32.4,18.0,30.21,South,180,0.0,0.0,55,0.00,CLR,,0.00,WeatherDisplay:10.37,2013-03-09 09:31:00,
2013-03-09 04:37:00,31.8,17.9,30.21,South,180,0.0,0.0,56,0.00,CLR,,0.00,WeatherDisplay:10.37,2013-03-09 09:37:00,
2013-03-09 04:42:00,32.2,18.2,30.21,South,180,0.0,0.0,56,0.00,CLR,,0.00,WeatherDisplay:10.37,2013-03-09 09:42:00,
2013-03-09 04:47:00,31.5,17.6,30.21,South,180,0.0,0.0,56,0.00,CLR,,0.00,WeatherDisplay:10.37,2013-03-09 09:47:00,
2013-03-09 04:52:00,31.6,18.1,30.23,South,180,0.0,0.0,57,0.00,CLR,,0.00,WeatherDisplay:10.37,2013-03-09 09:52:00,
2013-03-09 04:57:00,31.5,18.0,30.23,South,180,0.0,0.0,57,0.00,CLR,,0.00,WeatherDisplay:10.37,2013-03-09 09:57:00,
2013-03-09 05:02:00,31.1,17.6,30.23,South,180,0.0,0.0,57,0.00,CLR,,0.00,WeatherDisplay:10.37,2013-03-09 10:02:00,
2013-03-09 05:07:00,30.9,17.9,30.23,South,180,0.0,0.0,58,0.00,CLR,,0.00,WeatherDisplay:10.37,2013-03-09 10:07:00,
2013-03-09 05:12:00,31.1,18.0,30.23,South,180,0.0,0.0,58,0.00,CLR,,0.00,WeatherDisplay:10.37,2013-03-09 10:12:00,
2013-03-09 05:17:00,31.1,18.0,30.23,South,180,0.0,0.0,58,0.00,CLR,,0.00,WeatherDisplay:10.37,2013-03-09 10:17:00,
2013-03-09 05:22:00,30.9,17.9,30.23,South,180,0.0,0.0,58,0.00,CLR,,0.00,WeatherDisplay:10.37,2013-03-09 10:22:00,
2013-03-09 05:27:00,31.1,18.0,30.23,South,180,0.0,0.0,58,0.00,CLR,,0.00,WeatherDisplay:10.37,2013-03-09 10:27:00,
2013-03-09 05:32:00,31.1,18.0,30.25,South,180,0.0,0.0,58,0.00,CLR,,0.00,WeatherDisplay:10.37,2013-03-09 10:32:00,
2013-03-09 05:37:00,30.9,17.9,30.25,South,180,0.0,0.0,58,0.00,CLR,,0.00,WeatherDisplay:10.37,2013-03-09 10:37:00,
2013-03-09 05:42:00,30.9,17.9,30.25,South,180,0.0,0.0,58,0.00,CLR,,0.00,WeatherDisplay:10.37,2013-03-09 10:42:00,
2013-03-09 05:47:00,30.9,17.9,30.25,South,180,0.0,0.0,58,0.00,CLR,,0.00,WeatherDisplay:10.37,2013-03-09 10:47:00,
2013-03-09 05:52:00,30.9,17.9,30.25,South,180,0.0,0.0,58,0.00,CLR,,0.00,WeatherDisplay:10.37,2013-03-09 10:52:00,
2013-03-09 05:57:00,30.9,17.5,30.25,South,180,0.0,0.0,57,0.00,CLR,,0.00,WeatherDisplay:10.37,2013-03-09 10:57:00,
2013-03-09 06:02:00,30.9,17.5,30.25,South,180,0.0,0.0,57,0.00,CLR,,0.00,WeatherDisplay:10.37,2013-03-09 11:02:00,
2013-03-09 06:07:00,30.9,17.9,30.25,South,180,0.0,0.0,58,0.00,CLR,,0.00,WeatherDisplay:10.37,2013-03-09 11:07:00,
2013-03-09 06:12:00,30.9,17.9,30.26,South,180,0.0,0.0,58,0.00,CLR,,0.00,WeatherDisplay:10.37,2013-03-09 11:12:00,
2013-03-09 06:17:00,30.7,17.7,30.26,South,180,0.0,0.0,58,0.00,CLR,,0.00,WeatherDisplay:10.37,2013-03-09 11:17:00,
2013-03-09 06:22:00,30.9,17.9,30.26,South,180,0.0,0.0,58,0.00,CLR,,0.00,WeatherDisplay:10.37,2013-03-09 11:22:00,
2013-03-09 06:27:00,30.9,17.9,30.26,South,180,0.0,0.0,58,0.00,CLR,,0.00,WeatherDisplay:10.37,2013-03-09 11:27:00,
2013-03-09 06:32:00,30.9,17.9,30.27,South,180,0.0,0.0,58,0.00,CLR,,0.00,WeatherDisplay:10.37,2013-03-09 11:32:00,
2013-03-09 06:37:00,30.9,17.9,30.27,South,180,0.0,0.0,58,0.00,CLR,,0.00,WeatherDisplay:10.37,2013-03-09 11:37:00,
2013-03-09 06:42:00,31.1,17.6,30.27,South,180,0.0,0.0,57,0.00,CLR,,0.00,WeatherDisplay:10.37,2013-03-09 11:42:00,
2013-03-09 06:47:00,31.3,17.8,30.27,South,180,0.0,0.0,57,0.00,CLR,,0.00,WeatherDisplay:10.37,2013-03-09 11:47:00,
2013-03-09 06:52:00,31.3,17.8,30.29,South,180,0.0,0.0,57,0.00,CLR,,0.00,WeatherDisplay:10.37,2013-03-09 11:52:00,
2013-03-09 06:57:00,31.5,18.0,30.29,South,180,0.0,0.0,57,0.00,CLR,,0.00,WeatherDisplay:10.37,2013-03-09 11:57:00,
2013-03-09 07:02:00,31.6,18.1,30.29,South,180,0.0,0.0,57,0.00,CLR,,0.00,WeatherDisplay:10.37,2013-03-09 12:02:00,
2013-03-09 07:07:00,31.8,18.3,30.29,South,180,0.0,0.0,57,0.00,CLR,,0.00,WeatherDisplay:10.37,2013-03-09 12:07:00,
2013-03-09 07:12:00,31.8,18.3,30.30,South,180,0.0,0.0,57,0.00,CLR,,0.00,WeatherDisplay:10.37,2013-03-09 12:12:00,
2013-03-09 07:17:00,32.2,18.6,30.30,South,180,0.0,0.0,57,0.00,CLR,,0.00,WeatherDisplay:10.37,2013-03-09 12:17:00,
2013-03-09 07:22:00,32.4,18.8,30.30,South,180,0.0,0.0,57,0.00,CLR,,0.00,WeatherDisplay:10.37,2013-03-09 12:22:00,
2013-03-09 07:27:00,32.7,18.7,30.30,South,180,0.0,0.0,56,0.00,CLR,,0.00,WeatherDisplay:10.37,2013-03-09 12:27:00,
2013-03-09 07:32:00,32.9,18.9,30.31,South,180,0.0,0.0,56,0.00,CLR,,0.00,WeatherDisplay:10.37,2013-03-09 12:32:00,
2013-03-09 07:37:00,33.1,19.5,30.31,South,180,0.0,0.0,57,0.00,CLR,,0.00,WeatherDisplay:10.37,2013-03-09 12:37:00,
2013-03-09 07:42:00,33.3,19.7,30.31,South,180,0.0,0.0,57,0.00,CLR,,0.00,WeatherDisplay:10.37,2013-03-09 12:42:00,
2013-03-09 07:47:00,33.8,19.7,30.31,South,180,0.0,0.0,56,0.00,CLR,,0.00,WeatherDisplay:10.37,2013-03-09 12:47:00,
2013-03-09 07:52:00,33.8,19.7,30.31,South,180,0.0,0.0,56,0.00,CLR,,0.00,WeatherDisplay:10.37,2013-03-09 12:52:00,
2013-03-09 07:57:00,34.2,19.7,30.31,South,180,0.0,0.0,55,0.00,CLR,,0.00,WeatherDisplay:10.37,2013-03-09 12:57:00,
2013-03-09 08:02:00,34.2,19.7,30.31,South,180,0.0,0.0,55,0.00,CLR,,0.00,WeatherDisplay:10.37,2013-03-09 13:02:00,
2013-03-09 08:07:00,34.5,20.4,30.31,South,180,0.0,0.0,56,0.00,CLR,,0.00,WeatherDisplay:10.37,2013-03-09 13:07:00,
2013-03-09 08:12:00,34.5,20.4,30.33,South,180,0.0,0.0,56,0.00,CLR,,0.00,WeatherDisplay:10.37,2013-03-09 13:12:00,
2013-03-09 08:17:00,34.9,20.3,30.33,South,180,0.0,0.0,55,0.00,CLR,,0.00,WeatherDisplay:10.37,2013-03-09 13:17:00,
2013-03-09 08:22:00,35.1,20.5,30.33,South,180,0.0,0.0,55,0.00,CLR,,0.00,WeatherDisplay:10.37,2013-03-09 13:22:00,
2013-03-09 08:27:00,35.4,20.8,30.33,South,180,0.0,0.0,55,0.00,CLR,,0.00,WeatherDisplay:10.37,2013-03-09 13:27:00,
2013-03-09 08:32:00,35.4,20.8,30.32,South,180,0.0,0.0,55,0.00,CLR,,0.00,WeatherDisplay:10.37,2013-03-09 13:32:00,
2013-03-09 08:37:00,35.8,21.6,30.32,South,180,0.0,0.0,56,0.00,CLR,,0.00,WeatherDisplay:10.37,2013-03-09 13:37:00,
2013-03-09 08:42:00,36.1,21.5,30.32,South,180,0.0,0.0,55,0.00,CLR,,0.00,WeatherDisplay:10.37,2013-03-09 13:42:00,
2013-03-09 08:47:00,36.1,21.5,30.32,South,180,0.0,0.0,55,0.00,CLR,,0.00,WeatherDisplay:10.37,2013-03-09 13:47:00,
2013-03-09 08:52:00,36.1,21.5,30.32,South,180,0.0,0.0,55,0.00,CLR,,0.00,WeatherDisplay:10.37,2013-03-09 13:52:00,
2013-03-09 08:57:00,36.3,20.8,30.32,South,180,0.0,0.0,53,0.00,CLR,,0.00,WeatherDisplay:10.37,2013-03-09 13:57:00,
2013-03-09 09:02:00,36.5,21.4,30.32,South,180,0.0,0.0,54,0.00,CLR,,0.00,WeatherDisplay:10.37,2013-03-09 14:02:00,
2013-03-09 09:07:00,36.7,21.6,30.32,South,180,0.0,0.0,54,0.00,CLR,,0.00,WeatherDisplay:10.37,2013-03-09 14:07:00,
2013-03-09 09:12:00,36.9,21.7,30.32,South,180,0.0,0.0,54,0.00,CLR,,0.00,WeatherDisplay:10.37,2013-03-09 14:12:00,
2013-03-09 09:17:00,36.9,22.2,30.32,South,180,0.0,0.0,55,0.00,CLR,,0.00,WeatherDisplay:10.37,2013-03-09 14:17:00,
2013-03-09 09:22:00,36.9,22.2,30.32,South,180,0.0,0.0,55,0.00,CLR,,0.00,WeatherDisplay:10.37,2013-03-09 14:22:00,
2013-03-09 09:27:00,37.2,22.5,30.32,South,180,0.0,0.0,55,0.00,CLR,,0.00,WeatherDisplay:10.37,2013-03-09 14:27:00,
2013-03-09 09:32:00,37.2,22.5,30.32,South,180,0.0,0.0,55,0.00,CLR,,0.00,WeatherDisplay:10.37,2013-03-09 14:32:00,
2013-03-09 09:37:00,37.6,22.0,30.32,South,180,0.0,0.0,53,0.00,CLR,,0.00,WeatherDisplay:10.37,2013-03-09 14:37:00,
2013-03-09 09:42:00,37.6,22.4,30.32,South,180,0.0,0.0,54,0.00,CLR,,0.00,WeatherDisplay:10.37,2013-03-09 14:42:00,
2013-03-09 09:47:00,37.8,22.6,30.32,South,180,0.0,0.0,54,0.00,CLR,,0.00,WeatherDisplay:10.37,2013-03-09 14:47:00,
2013-03-09 09:52:00,37.9,22.8,30.33,South,180,0.0,0.0,54,0.00,CLR,,0.00,WeatherDisplay:10.37,2013-03-09 14:52:00,
2013-03-09 09:57:00,38.3,23.1,30.33,South,180,0.0,0.0,54,0.00,CLR,,0.00,WeatherDisplay:10.37,2013-03-09 14:57:00,
2013-03-09 10:02:00,38.7,23.4,30.33,South,180,0.0,0.0,54,0.00,CLR,,0.00,WeatherDisplay:10.37,2013-03-09 15:02:00,
2013-03-09 10:07:00,38.5,22.4,30.33,South,180,0.0,0.0,52,0.00,CLR,,0.00,WeatherDisplay:10.37,2013-03-09 15:07:00,
2013-03-09 10:12:00,38.5,22.8,30.32,South,180,0.0,0.0,53,0.00,CLR,,0.00,WeatherDisplay:10.37,2013-03-09 15:12:00,
2013-03-09 10:17:00,38.3,22.6,30.32,South,180,0.0,0.0,53,0.00,CLR,,0.00,WeatherDisplay:10.37,2013-03-09 15:17:00,
2013-03-09 10:23:00,38.3,23.1,30.32,South,180,0.0,0.0,54,0.00,CLR,,0.00,WeatherDisplay:10.37,2013-03-09 15:23:00,
2013-03-09 10:28:00,37.9,22.8,30.32,South,180,0.0,0.0,54,0.00,CLR,,0.00,WeatherDisplay:10.37,2013-03-09 15:28:00,
2013-03-09 10:33:00,38.3,23.5,30.34,South,180,0.0,0.0,55,0.00,CLR,,0.00,WeatherDisplay:10.37,2013-03-09 15:33:00,
2013-03-09 10:38:00,38.5,23.3,30.34,South,180,0.0,0.0,54,0.00,CLR,,0.00,WeatherDisplay:10.37,2013-03-09 15:38:00,
2013-03-09 10:43:00,38.5,23.3,30.34,South,180,0.0,0.0,54,0.00,CLR,,0.00,WeatherDisplay:10.37,2013-03-09 15:43:00,
2013-03-09 10:48:00,38.8,23.6,30.34,South,180,0.0,0.0,54,0.00,CLR,,0.00,WeatherDisplay:10.37,2013-03-09 15:48:00,
2013-03-09 10:53:00,39.0,23.3,30.34,South,180,0.0,0.0,53,0.00,CLR,,0.00,WeatherDisplay:10.37,2013-03-09 15:53:00,
2013-03-09 10:58:00,39.4,23.7,30.34,South,180,0.0,0.0,53,0.00,CLR,,0.00,WeatherDisplay:10.37,2013-03-09 15:58:00,
2013-03-09 11:03:00,39.4,23.2,30.34,South,180,0.0,0.0,52,0.00,CLR,,0.00,WeatherDisplay:10.37,2013-03-09 16:03:00,
2013-03-09 11:08:00,39.7,23.5,30.34,South,180,0.0,0.0,52,0.00,CLR,,0.00,WeatherDisplay:10.37,2013-03-09 16:08:00,
2013-03-09 11:13:00,39.7,23.1,30.34,South,180,0.0,0.0,51,0.00,CLR,,0.00,WeatherDisplay:10.37,2013-03-09 16:13:00,
2013-03-09 11:18:00,40.1,23.4,30.34,South,180,0.0,0.0,51,0.00,CLR,,0.00,WeatherDisplay:10.37,2013-03-09 16:18:00,
2013-03-09 11:23:00,40.5,23.7,30.34,South,180,0.0,0.0,51,0.00,CLR,,0.00,WeatherDisplay:10.37,2013-03-09 16:23:00,
2013-03-09 11:28:00,40.5,23.3,30.34,South,180,0.0,0.0,50,0.00,CLR,,0.00,WeatherDisplay:10.37,2013-03-09 16:28:00,
2013-03-09 11:33:00,40.1,23.4,30.35,South,180,0.0,0.0,51,0.00,CLR,,0.00,WeatherDisplay:10.37,2013-03-09 16:33:00,
2013-03-09 11:38:00,39.9,22.8,30.35,South,180,0.0,0.0,50,0.00,CLR,,0.00,WeatherDisplay:10.37,2013-03-09 16:38:00,
2013-03-09 11:43:00,39.7,22.1,30.35,South,180,0.0,0.0,49,0.00,CLR,,0.00,WeatherDisplay:10.37,2013-03-09 16:43:00,
2013-03-09 11:48:00,39.9,22.3,30.35,South,180,0.0,0.0,49,0.00,CLR,,0.00,WeatherDisplay:10.37,2013-03-09 16:48:00,
2013-03-09 11:53:00,40.6,23.9,30.35,South,180,0.0,0.0,51,0.00,CLR,,0.00,WeatherDisplay:10.37,2013-03-09 16:53:00,
2013-03-09 11:58:00,40.6,23.4,30.35,South,180,0.0,0.0,50,0.00,CLR,,0.00,WeatherDisplay:10.37,2013-03-09 16:58:00,
2013-03-09 12:03:00,41.0,23.3,30.35,South,180,0.0,0.0,49,0.00,CLR,,0.00,WeatherDisplay:10.37,2013-03-09 17:03:00,
2013-03-09 12:08:00,41.0,23.3,30.35,South,180,0.0,0.0,49,0.00,CLR,,0.00,WeatherDisplay:10.37,2013-03-09 17:08:00,
2013-03-09 12:13:00,41.2,23.0,30.36,South,180,0.0,0.0,48,0.00,CLR,,0.00,WeatherDisplay:10.37,2013-03-09 17:13:00,
2013-03-09 12:18:00,41.2,20.9,30.36,South,180,0.0,0.0,44,0.00,CLR,,0.00,WeatherDisplay:10.37,2013-03-09 17:18:00,
2013-03-09 12:23:00,41.2,20.3,30.36,South,180,0.0,0.0,43,0.00,CLR,,0.00,WeatherDisplay:10.37,2013-03-09 17:23:00,
2013-03-09 12:28:00,41.2,20.9,30.36,South,180,0.0,0.0,44,0.00,CLR,,0.00,WeatherDisplay:10.37,2013-03-09 17:28:00,
2013-03-09 12:33:00,41.7,21.4,30.35,South,180,0.0,0.0,44,0.00,CLR,,0.00,WeatherDisplay:10.37,2013-03-09 17:33:00,
2013-03-09 12:38:00,41.9,21.5,30.35,South,180,0.0,0.0,44,0.00,CLR,,0.00,WeatherDisplay:10.37,2013-03-09 17:38:00,
2013-03-09 12:43:00,41.7,19.7,30.35,South,180,0.0,0.0,41,0.00,CLR,,0.00,WeatherDisplay:10.37,2013-03-09 17:43:00,
2013-03-09 12:48:00,41.9,19.9,30.35,South,180,0.0,0.0,41,0.00,CLR,,0.00,WeatherDisplay:10.37,2013-03-09 17:48:00,
2013-03-09 12:53:00,42.1,19.5,30.35,South,180,0.0,0.0,40,0.00,CLR,,0.00,WeatherDisplay:10.37,2013-03-09 17:53:00,
2013-03-09 12:58:00,42.3,19.6,30.35,South,180,0.0,0.0,40,0.00,CLR,,0.00,WeatherDisplay:10.37,2013-03-09 17:58:00,
2013-03-09 13:03:00,43.3,20.6,30.35,South,180,0.0,0.0,40,0.00,CLR,,0.00,WeatherDisplay:10.37,2013-03-09 18:03:00,
2013-03-09 13:08:00,43.3,19.4,30.35,South,180,0.0,0.0,38,0.00,CLR,,0.00,WeatherDisplay:10.37,2013-03-09 18:08:00,
2013-03-09 13:13:00,43.5,19.6,30.35,South,180,0.0,0.0,38,0.00,CLR,,0.00,WeatherDisplay:10.37,2013-03-09 18:13:00,
2013-03-09 13:18:00,43.3,18.8,30.35,South,180,0.0,0.0,37,0.00,CLR,,0.00,WeatherDisplay:10.37,2013-03-09 18:18:00,
2013-03-09 13:23:00,43.9,19.9,30.35,South,180,0.0,0.0,38,0.00,CLR,,0.00,WeatherDisplay:10.37,2013-03-09 18:23:00,
2013-03-09 13:28:00,44.2,18.9,30.35,South,180,0.0,0.0,36,0.00,CLR,,0.00,WeatherDisplay:10.37,2013-03-09 18:28:00,
2013-03-09 13:33:00,44.1,18.1,30.34,South,180,0.0,0.0,35,0.00,CLR,,0.00,WeatherDisplay:10.37,2013-03-09 18:33:00,
2013-03-09 13:38:00,44.6,19.3,30.34,South,180,0.0,0.0,36,0.00,CLR,,0.00,WeatherDisplay:10.37,2013-03-09 18:38:00,
2013-03-09 13:43:00,44.8,19.4,30.34,South,180,0.0,0.0,36,0.00,CLR,,0.00,WeatherDisplay:10.37,2013-03-09 18:43:00,
2013-03-09 13:48:00,45.3,20.5,30.34,South,180,0.0,0.0,37,0.00,CLR,,0.00,WeatherDisplay:10.37,2013-03-09 18:48:00,
2013-03-09 13:53:00,45.3,19.2,30.34,South,180,0.0,0.0,35,0.00,CLR,,0.00,WeatherDisplay:10.37,2013-03-09 18:53:00,
2013-03-09 13:58:00,45.0,19.6,30.34,South,180,0.0,0.0,36,0.00,CLR,,0.00,WeatherDisplay:10.37,2013-03-09 18:58:00,
2013-03-09 14:03:00,46.0,20.5,30.34,South,180,0.0,0.0,36,0.00,CLR,,0.00,WeatherDisplay:10.37,2013-03-09 19:03:00,
2013-03-09 14:08:00,46.2,20.7,30.34,South,180,0.0,0.0,36,0.00,CLR,,0.00,WeatherDisplay:10.37,2013-03-09 19:08:00,
2013-03-09 14:13:00,46.0,20.5,30.34,South,180,0.0,0.0,36,0.00,CLR,,0.00,WeatherDisplay:10.37,2013-03-09 19:13:00,
2013-03-09 14:18:00,46.6,19.7,30.34,South,180,0.0,0.0,34,0.00,CLR,,0.00,WeatherDisplay:10.37,2013-03-09 19:18:00,
2013-03-09 14:23:00,46.4,19.5,30.34,South,180,0.0,0.0,34,0.00,CLR,,0.00,WeatherDisplay:10.37,2013-03-09 19:23:00,
2013-03-09 14:28:00,46.4,19.5,30.34,South,180,0.0,0.0,34,0.00,CLR,,0.00,WeatherDisplay:10.37,2013-03-09 19:28:00,
2013-03-09 14:33:00,46.2,19.4,30.34,South,180,0.0,0.0,34,0.00,CLR,,0.00,WeatherDisplay:10.37,2013-03-09 19:33:00,
2013-03-09 14:38:00,46.8,19.8,30.34,South,180,0.0,0.0,34,0.00,CLR,,0.00,WeatherDisplay:10.37,2013-03-09 19:38:00,
2013-03-09 14:43:00,46.8,19.1,30.34,South,180,0.0,0.0,33,0.00,CLR,,0.00,WeatherDisplay:10.37,2013-03-09 19:43:00,
2013-03-09 14:48:00,47.3,20.3,30.34,South,180,0.0,0.0,34,0.00,CLR,,0.00,WeatherDisplay:10.37,2013-03-09 19:48:00,
2013-03-09 14:53:00,46.8,19.1,30.34,South,180,0.0,0.0,33,0.00,CLR,,0.00,WeatherDisplay:10.37,2013-03-09 19:53:00,
2013-03-09 14:58:00,46.0,17.8,30.34,South,180,0.0,0.0,32,0.00,CLR,,0.00,WeatherDisplay:10.37,2013-03-09 19:58:00,
2013-03-09 15:03:00,46.4,19.5,30.34,South,180,0.0,0.0,34,0.00,CLR,,0.00,WeatherDisplay:10.37,2013-03-09 20:03:00,
2013-03-09 15:08:00,46.4,18.8,30.34,South,180,0.0,0.0,33,0.00,CLR,,0.00,WeatherDisplay:10.37,2013-03-09 20:08:00,
2013-03-09 15:13:00,45.9,18.3,30.34,South,180,0.0,0.0,33,0.00,CLR,,0.00,WeatherDisplay:10.37,2013-03-09 20:13:00,
2013-03-09 15:18:00,49.8,23.9,30.34,South,180,0.0,0.0,36,0.00,CLR,,0.00,WeatherDisplay:10.37,2013-03-09 20:18:00,
2013-03-09 15:23:00,50.0,22.7,30.34,South,180,0.0,0.0,34,0.00,CLR,,0.00,WeatherDisplay:10.37,2013-03-09 20:23:00,
2013-03-09 15:28:00,50.9,22.8,30.34,South,180,0.0,0.0,33,0.00,CLR,,0.00,WeatherDisplay:10.37,2013-03-09 20:28:00,
2013-03-09 15:33:00,48.0,20.2,30.34,South,180,0.0,0.0,33,0.00,CLR,,0.00,WeatherDisplay:10.37,2013-03-09 20:33:00,
2013-03-09 15:38:00,46.4,18.8,30.34,South,180,0.0,0.0,33,0.00,CLR,,0.00,WeatherDisplay:10.37,2013-03-09 20:38:00,
2013-03-09 15:44:00,49.5,22.9,30.34,South,180,0.0,0.0,35,0.00,CLR,,0.00,WeatherDisplay:10.37,2013-03-09 20:44:00,
2013-03-09 15:49:00,49.8,23.2,30.34,South,180,0.0,0.0,35,0.00,CLR,,0.00,WeatherDisplay:10.37,2013-03-09 20:49:00,
2013-03-09 15:54:00,49.3,22.8,30.35,South,180,0.0,0.0,35,0.00,CLR,,0.00,WeatherDisplay:10.37,2013-03-09 20:54:00,
2013-03-09 15:59:00,50.5,23.2,30.35,South,180,0.0,0.0,34,0.00,CLR,,0.00,WeatherDisplay:10.37,2013-03-09 20:59:00,
2013-03-09 16:04:00,48.9,22.4,30.35,South,180,0.0,0.0,35,0.00,CLR,,0.00,WeatherDisplay:10.37,2013-03-09 21:04:00,
2013-03-09 16:09:00,49.5,21.5,30.35,South,180,0.0,0.0,33,0.00,CLR,,0.00,WeatherDisplay:10.37,2013-03-09 21:09:00,
2013-03-09 16:14:00,48.9,22.4,30.36,South,180,0.0,0.0,35,0.00,CLR,,0.00,WeatherDisplay:10.37,2013-03-09 21:14:00,
2013-03-09 16:19:00,47.3,21.7,30.36,South,180,0.0,0.0,36,0.00,CLR,,0.00,WeatherDisplay:10.37,2013-03-09 21:19:00,
2013-03-09 16:24:00,48.4,22.6,30.36,South,180,0.0,0.0,36,0.00,CLR,,0.00,WeatherDisplay:10.37,2013-03-09 21:24:00,
2013-03-09 16:29:00,46.4,21.5,30.36,South,180,0.0,0.0,37,0.00,CLR,,0.00,WeatherDisplay:10.37,2013-03-09 21:29:00,
2013-03-09 16:34:00,45.1,21.0,30.37,South,180,0.0,0.0,38,0.00,CLR,,0.00,WeatherDisplay:10.37,2013-03-09 21:34:00,
2013-03-09 16:39:00,44.2,20.8,30.37,South,180,0.0,0.0,39,0.00,CLR,,0.00,WeatherDisplay:10.37,2013-03-09 21:39:00,
2013-03-09 16:44:00,43.0,20.3,30.37,South,180,0.0,0.0,40,0.00,CLR,,0.00,WeatherDisplay:10.37,2013-03-09 21:44:00,
2013-03-09 16:49:00,41.9,20.4,30.37,South,180,0.0,0.0,42,0.00,CLR,,0.00,WeatherDisplay:10.37,2013-03-09 21:49:00,
2013-03-09 16:54:00,41.0,20.2,30.37,South,180,0.0,0.0,43,0.00,CLR,,0.00,WeatherDisplay:10.37,2013-03-09 21:54:00,
2013-03-09 16:59:00,40.3,20.6,30.37,South,180,0.0,0.0,45,0.00,CLR,,0.00,WeatherDisplay:10.37,2013-03-09 21:59:00,
2013-03-09 17:04:00,39.7,21.1,30.37,South,180,0.0,0.0,47,0.00,CLR,,0.00,WeatherDisplay:10.37,2013-03-09 22:04:00,
2013-03-09 17:09:00,39.0,21.0,30.37,South,180,0.0,0.0,48,0.00,CLR,,0.00,WeatherDisplay:10.37,2013-03-09 22:09:00,
2013-03-09 17:14:00,38.8,21.3,30.37,South,180,0.0,0.0,49,0.00,CLR,,0.00,WeatherDisplay:10.37,2013-03-09 22:14:00,
2013-03-09 17:19:00,38.5,21.0,30.37,South,180,0.0,0.0,49,0.00,CLR,,0.00,WeatherDisplay:10.37,2013-03-09 22:19:00,
2013-03-09 17:24:00,38.1,21.1,30.37,South,180,0.0,0.0,50,0.00,CLR,,0.00,WeatherDisplay:10.37,2013-03-09 22:24:00,
2013-03-09 17:29:00,37.4,20.9,30.37,South,180,0.0,0.0,51,0.00,CLR,,0.00,WeatherDisplay:10.37,2013-03-09 22:29:00,
2013-03-09 17:34:00,37.2,21.6,30.38,South,180,0.0,0.0,53,0.00,CLR,,0.00,WeatherDisplay:10.37,2013-03-09 22:34:00,
2013-03-09 17:39:00,36.9,21.3,30.38,South,180,0.0,0.0,53,0.00,CLR,,0.00,WeatherDisplay:10.37,2013-03-09 22:39:00,
2013-03-09 17:44:00,36.5,21.4,30.38,South,180,0.0,0.0,54,0.00,CLR,,0.00,WeatherDisplay:10.37,2013-03-09 22:44:00,
2013-03-09 17:49:00,36.0,21.3,30.38,South,180,0.0,0.0,55,0.00,CLR,,0.00,WeatherDisplay:10.37,2013-03-09 22:49:00,
2013-03-09 17:54:00,35.8,21.2,30.38,South,180,0.0,0.0,55,0.00,CLR,,0.00,WeatherDisplay:10.37,2013-03-09 22:54:00,
2013-03-09 17:59:00,35.2,21.1,30.38,South,180,0.0,0.0,56,0.00,CLR,,0.00,WeatherDisplay:10.37,2013-03-09 22:59:00,
2013-03-09 18:04:00,34.9,20.8,30.38,South,180,0.0,0.0,56,0.00,CLR,,0.00,WeatherDisplay:10.37,2013-03-09 23:04:00,
2013-03-09 18:09:00,34.7,20.6,30.38,South,180,0.0,0.0,56,0.00,CLR,,0.00,WeatherDisplay:10.37,2013-03-09 23:09:00,
2013-03-09 18:14:00,34.3,20.7,30.39,South,180,0.0,0.0,57,0.00,CLR,,0.00,WeatherDisplay:10.37,2013-03-09 23:14:00,
2013-03-09 18:19:00,34.0,20.3,30.39,South,180,0.0,0.0,57,0.00,CLR,,0.00,WeatherDisplay:10.37,2013-03-09 23:19:00,
2013-03-09 18:24:00,33.8,20.2,30.39,South,180,0.0,0.0,57,0.00,CLR,,0.00,WeatherDisplay:10.37,2013-03-09 23:24:00,
2013-03-09 18:29:00,33.4,20.2,30.39,South,180,0.0,0.0,58,0.00,CLR,,0.00,WeatherDisplay:10.37,2013-03-09 23:29:00,
2013-03-09 18:34:00,33.3,20.1,30.40,South,180,0.0,0.0,58,0.00,CLR,,0.00,WeatherDisplay:10.37,2013-03-09 23:34:00,
2013-03-09 18:39:00,32.7,20.0,30.40,South,180,0.0,0.0,59,0.00,CLR,,0.00,WeatherDisplay:10.37,2013-03-09 23:39:00,
2013-03-09 18:44:00,32.7,20.0,30.40,South,180,0.0,0.0,59,0.00,CLR,,0.00,WeatherDisplay:10.37,2013-03-09 23:44:00,
2013-03-09 18:49:00,32.2,19.4,30.40,South,180,0.0,0.0,59,0.00,CLR,,0.00,WeatherDisplay:10.37,2013-03-09 23:49:00,
2013-03-09 18:54:00,32.0,19.3,30.40,South,180,0.0,0.0,59,0.00,CLR,,0.00,WeatherDisplay:10.37,2013-03-09 23:54:00,
2013-03-09 18:59:00,31.6,19.3,30.40,South,180,0.0,0.0,60,0.00,CLR,,0.00,WeatherDisplay:10.37,2013-03-09 23:59:00,
2013-03-09 19:04:00,31.6,19.7,30.40,South,180,0.0,0.0,61,0.00,CLR,,0.00,WeatherDisplay:10.37,2013-03-10 00:04:00,
2013-03-09 19:09:00,31.3,19.8,30.40,South,180,0.0,0.0,62,0.00,CLR,,0.00,WeatherDisplay:10.37,2013-03-10 00:09:00,
2013-03-09 19:14:00,31.1,20.0,30.40,South,180,0.0,0.0,63,0.00,CLR,,0.00,WeatherDisplay:10.37,2013-03-10 00:14:00,
2013-03-09 19:19:00,30.7,19.6,30.40,South,180,0.0,0.0,63,0.00,CLR,,0.00,WeatherDisplay:10.37,2013-03-10 00:19:00,
2013-03-09 19:24:00,30.7,20.0,30.40,South,180,0.0,0.0,64,0.00,CLR,,0.00,WeatherDisplay:10.37,2013-03-10 00:24:00,
2013-03-09 19:29:00,30.6,20.2,30.40,South,180,0.0,0.0,65,0.00,CLR,,0.00,WeatherDisplay:10.37,2013-03-10 00:29:00,
2013-03-09 19:34:00,30.4,20.0,30.40,South,180,0.0,0.0,65,0.00,CLR,,0.00,WeatherDisplay:10.37,2013-03-10 00:34:00,
2013-03-09 19:39:00,30.2,20.2,30.40,South,180,0.0,0.0,66,0.00,CLR,,0.00,WeatherDisplay:10.37,2013-03-10 00:39:00,
2013-03-09 19:44:00,30.0,20.0,30.40,South,180,0.0,0.0,66,0.00,CLR,,0.00,WeatherDisplay:10.37,2013-03-10 00:44:00,
2013-03-09 19:49:00,30.0,20.4,30.40,South,180,0.0,0.0,67,0.00,CLR,,0.00,WeatherDisplay:10.37,2013-03-10 00:49:00,
2013-03-09 19:54:00,29.7,20.0,30.40,South,180,0.0,0.0,67,0.00,CLR,,0.00,WeatherDisplay:10.37,2013-03-10 00:54:00,
2013-03-09 19:59:00,29.7,20.4,30.40,South,180,0.0,0.0,68,0.00,CLR,,0.00,WeatherDisplay:10.37,2013-03-10 00:59:00,
2013-03-09 20:04:00,29.5,20.2,30.40,South,180,0.0,0.0,68,0.00,CLR,,0.00,WeatherDisplay:10.37,2013-03-10 01:04:00,
2013-03-09 20:09:00,29.5,20.6,30.40,South,180,0.0,0.0,69,0.00,CLR,,0.00,WeatherDisplay:10.37,2013-03-10 01:09:00,
2013-03-09 20:14:00,29.3,20.4,30.40,South,180,0.0,0.0,69,0.00,CLR,,0.00,WeatherDisplay:10.37,2013-03-10 01:14:00,
2013-03-09 20:19:00,29.3,20.7,30.40,South,180,0.0,0.0,70,0.00,CLR,,0.00,WeatherDisplay:10.37,2013-03-10 01:19:00,
2013-03-09 20:24:00,29.1,20.6,30.40,South,180,0.0,0.0,70,0.00,CLR,,0.00,WeatherDisplay:10.37,2013-03-10 01:24:00,
2013-03-09 20:29:00,29.1,20.9,30.40,South,180,0.0,0.0,71,0.00,CLR,,0.00,WeatherDisplay:10.37,2013-03-10 01:29:00,
2013-03-09 20:34:00,28.9,20.7,30.41,South,180,0.0,0.0,71,0.00,CLR,,0.00,WeatherDisplay:10.37,2013-03-10 01:34:00,
2013-03-09 20:39:00,28.8,20.9,30.41,South,180,0.0,0.0,72,0.00,CLR,,0.00,WeatherDisplay:10.37,2013-03-10 01:39:00,
2013-03-09 20:44:00,28.6,20.7,30.41,South,180,0.0,0.0,72,0.00,CLR,,0.00,WeatherDisplay:10.37,2013-03-10 01:44:00,
2013-03-09 20:49:00,28.4,20.8,30.41,South,180,0.0,0.0,73,0.00,CLR,,0.00,WeatherDisplay:10.37,2013-03-10 01:49:00,
2013-03-09 20:54:00,28.2,20.7,30.41,South,180,0.0,0.0,73,0.00,CLR,,0.00,WeatherDisplay:10.37,2013-03-10 01:54:00,
2013-03-09 20:59:00,28.2,20.7,30.41,South,180,0.0,0.0,73,0.00,CLR,,0.00,WeatherDisplay:10.37,2013-03-10 01:59:00,
2013-03-09 21:04:00,28.0,20.8,30.41,South,180,0.0,0.0,74,0.00,CLR,,0.00,WeatherDisplay:10.37,2013-03-10 02:04:00,
2013-03-09 21:09:00,28.0,20.8,30.41,South,180,0.0,0.0,74,0.00,CLR,,0.00,WeatherDisplay:10.37,2013-03-10 02:09:00,
2013-03-09 21:15:00,27.9,20.6,30.42,South,180,0.0,0.0,74,0.00,CLR,,0.00,WeatherDisplay:10.37,2013-03-10 02:15:00,
2013-03-09 21:20:00,27.7,20.8,30.42,South,180,0.0,0.0,75,0.00,CLR,,0.00,WeatherDisplay:10.37,2013-03-10 02:20:00,
2013-03-09 21:25:00,27.7,20.8,30.42,South,180,0.0,0.0,75,0.00,CLR,,0.00,WeatherDisplay:10.37,2013-03-10 02:25:00,
2013-03-09 21:30:00,27.7,20.8,30.42,South,180,0.0,0.0,75,0.00,CLR,,0.00,WeatherDisplay:10.37,2013-03-10 02:30:00,
2013-03-09 21:35:00,27.7,21.1,30.42,South,180,0.0,0.0,76,0.00,CLR,,0.00,WeatherDisplay:10.37,2013-03-10 02:35:00,
2013-03-09 21:40:00,27.5,20.9,30.42,South,180,0.0,0.0,76,0.00,CLR,,0.00,WeatherDisplay:10.37,2013-03-10 02:40:00,
2013-03-09 21:45:00,27.3,20.8,30.42,South,180,0.0,0.0,76,0.00,CLR,,0.00,WeatherDisplay:10.37,2013-03-10 02:45:00,
2013-03-09 21:50:00,27.3,20.8,30.42,South,180,0.0,0.0,76,0.00,CLR,,0.00,WeatherDisplay:10.37,2013-03-10 02:50:00,
2013-03-09 21:55:00,27.3,21.1,30.42,South,180,0.0,0.0,77,0.00,CLR,,0.00,WeatherDisplay:10.37,2013-03-10 02:55:00,
2013-03-09 22:00:00,27.1,20.9,30.42,South,180,0.0,0.0,77,0.00,CLR,,0.00,WeatherDisplay:10.37,2013-03-10 03:00:00,
2013-03-09 22:05:00,27.0,20.7,30.42,South,180,0.0,0.0,77,0.00,CLR,,0.00,WeatherDisplay:10.37,2013-03-10 03:05:00,
2013-03-09 22:10:00,27.0,20.7,30.42,South,180,0.0,0.0,77,0.00,CLR,,0.00,WeatherDisplay:10.37,2013-03-10 03:10:00,
2013-03-09 22:15:00,27.0,20.7,30.42,South,180,0.0,0.0,77,0.00,CLR,,0.00,WeatherDisplay:10.37,2013-03-10 03:15:00,
2013-03-09 22:20:00,26.8,20.8,30.42,South,180,0.0,0.0,78,0.00,CLR,,0.00,WeatherDisplay:10.37,2013-03-10 03:20:00,
2013-03-09 22:25:00,26.6,20.7,30.42,South,180,0.0,0.0,78,0.00,CLR,,0.00,WeatherDisplay:10.37,2013-03-10 03:25:00,
2013-03-09 22:30:00,26.6,20.7,30.42,South,180,0.0,0.0,78,0.00,CLR,,0.00,WeatherDisplay:10.37,2013-03-10 03:30:00,
2013-03-09 22:35:00,26.6,20.7,30.41,South,180,0.0,0.0,78,0.00,CLR,,0.00,WeatherDisplay:10.37,2013-03-10 03:35:00,
2013-03-09 22:40:00,26.4,20.5,30.41,South,180,0.0,0.0,78,0.00,CLR,,0.00,WeatherDisplay:10.37,2013-03-10 03:40:00,
2013-03-09 22:45:00,26.4,20.5,30.41,South,180,0.0,0.0,78,0.00,CLR,,0.00,WeatherDisplay:10.37,2013-03-10 03:45:00,
2013-03-09 22:50:00,26.2,20.3,30.41,South,180,0.0,0.0,78,0.00,CLR,,0.00,WeatherDisplay:10.37,2013-03-10 03:50:00,
2013-03-09 22:55:00,26.2,20.6,30.41,South,180,0.0,0.0,79,0.00,CLR,,0.00,WeatherDisplay:10.37,2013-03-10 03:55:00,
2013-03-09 23:00:00,26.4,20.8,30.41,South,180,0.0,0.0,79,0.00,CLR,,0.00,WeatherDisplay:10.37,2013-03-10 04:00:00,
2013-03-09 23:05:00,26.2,20.6,30.41,South,180,0.0,0.0,79,0.00,CLR,,0.00,WeatherDisplay:10.37,2013-03-10 04:05:00,
2013-03-09 23:10:00,26.2,20.6,30.41,South,180,0.0,0.0,79,0.00,CLR,,0.00,WeatherDisplay:10.37,2013-03-10 04:10:00,
2013-03-09 23:15:00,26.2,20.6,30.41,South,180,0.0,0.0,79,0.00,CLR,,0.00,WeatherDisplay:10.37,2013-03-10 04:15:00,
2013-03-09 23:20:00,26.1,20.4,30.41,South,180,0.0,0.0,79,0.00,CLR,,0.00,WeatherDisplay:10.37,2013-03-10 04:20:00,
2013-03-09 23:25:00,26.1,20.4,30.41,South,180,0.0,0.0,79,0.00,CLR,,0.00,WeatherDisplay:10.37,2013-03-10 04:25:00,
2013-03-09 23:30:00,25.9,20.3,30.41,South,180,0.0,0.0,79,0.00,CLR,,0.00,WeatherDisplay:10.37,2013-03-10 04:30:00,
2013-03-09 23:35:00,25.9,20.6,30.42,South,180,0.0,0.0,80,0.00,CLR,,0.00,WeatherDisplay:10.37,2013-03-10 04:35:00,
2013-03-09 23:40:00,25.9,20.6,30.42,South,180,0.0,0.0,80,0.00,CLR,,0.00,WeatherDisplay:10.37,2013-03-10 04:40:00,
2013-03-09 23:45:00,25.9,20.6,30.42,South,180,0.0,0.0,80,0.00,CLR,,0.00,WeatherDisplay:10.37,2013-03-10 04:45:00,
2013-03-09 23:50:00,25.9,20.6,30.42,South,180,0.0,0.0,80,0.00,CLR,,0.00,WeatherDisplay:10.37,2013-03-10 04:50:00,
2013-03-09 23:55:00,25.9,20.9,30.42,South,180,0.0,0.0,81,0.00,CLR,,0.00,WeatherDisplay:10.37,2013-03-10 04:55:00,